Regional Weather Roundup
Issued by NWS

Home | Current Version | Previous Version | Text Only | Print | Product List | Glossary Off
Versions: 1 2 3 4 5 6 7 8 9 10 11 12 13 14 15 16 17 18 19 20 21 22 23 24 25 26 27 28 29 30 31 32 33 34 35 36 37 38 39 40 41 42 43 44 45 46 47 48 49 50

499
ASUS45 KSLC 240910
RWRUT

UTAH REGIONAL WEATHER ROUNDUP
NATIONAL WEATHER SERVICE SALT LAKE CITY UT
300 AM MDT MON JUL 24 2017

UTZ001>011-023>025-241000-

NORTHERN UTAH

CITY           SKY/WX    TMP DP  RH WIND       PRES   REMARKS
BRIGHAM CITY   CLEAR     76  44  31 CALM      30.00F
HILL AFB       PTCLDY    73  44  34 E14       30.04F
LOGAN          PTCLDY    63  52  67 N5        30.02S
OGDEN          PTCLDY    72  45  37 S9        30.00F
SALT LAKE CITY PTCLDY    78  48  34 SE6       29.98F
TOOELE VALLEY  PTCLDY    70  45  40 SW6       30.00F
WENDOVER       MOCLDY    75  45  34 CALM      29.99F
HEBER CITY     LGT RAIN  63  50  63 CALM      30.12F
WEST JORDAN    CLEAR     71  51  48 CALM      30.03F

$$

UTZ011>015-024>027-241000-

CENTRAL/NORTHEAST UTAH

CITY           SKY/WX    TMP DP  RH WIND       PRES   REMARKS
PROVO AIRPORT  MOCLDY    73  56  54 CALM      30.04R
MOAB/CANYONLAN CLEAR     75  51  43 CALM      30.02R
DELTA          CLOUDY    72  45  37 S6        30.05S
PRICE          PTCLDY    69  39  33 CALM      30.13S
RICHFIELD      CLEAR     68  54  60 CALM      30.13S
ROOSEVELT      CLEAR     64  43  45 CALM      30.09S
VERNAL         CLOUDY    69  46  43 N5        30.09R

$$

UTZ013>016-019>022-027-241000-

SOUTHERN UTAH

CITY           SKY/WX    TMP DP  RH WIND       PRES   REMARKS
BRYCE CANYON   MOCLDY    58  51  78 NW5       30.29F
CEDAR CITY     CLOUDY    71  48  43 SE9       30.14F
MILFORD        CLOUDY    68  48  48 CALM      30.08F
ST GEORGE      PTSUNNY   85  58  39 SW6       29.94S
HANKSVILLE     PTCLDY    79  43  27 NE6       30.03R
KANAB          CLEAR     68  57  68 N1        30.14S
BLANDING       MOCLDY    69  51  52 E6        30.27R

$$

REGIONAL REPORTS     COLORADO/ARIZONA

CITY           SKY/WX    TMP DP  RH WIND       PRES   REMARKS
CRAIG, CO      CLEAR     53  44  71 CALM      30.18S
GRAND JUNCTION CLEAR     73  49  42 E13       30.07F
RIFLE, CO      CLEAR     66  46  48 E6        30.14F
MONTROSE, CO   CLOUDY    63  49  60 E8        30.18F
CORTEZ, CO     CLOUDY    65  57  75 W3        30.21S
COLORADO CITY    N/A     72  64  78 CALM      30.13R
PAGE, AZ       CLOUDY    82  53  36 CALM      30.02R
GRAND CANYON   CLOUDY    62  57  83 CALM      30.24S
KINGMAN, AZ    PTCLDY    70  67  90 SE7       29.99S
FLAGSTAFF, AZ  CLOUDY    58  58 100 CALM      30.27F

$$

REGIONAL REPORTS    NEVADA/IDAHO/WYOMING

CITY           SKY/WX    TMP DP  RH WIND       PRES   REMARKS
LAS VEGAS, NV  CLOUDY    91  60  35 NE3       29.87R HX  90
ELY, NY          N/A    N/A N/A N/A MISG      30.17F
ELKO, NV       CLOUDY    72  43  35 CALM      30.06F
POCATELLO, ID  CLEAR     63  41  44 CALM      30.00S
BURLEY, ID     MOCLDY    66  49  54 SW3       29.96S
FORT BRIDGER,    N/A     69  36  29 W12       30.24F
EVANSTON, WY   CLOUDY    59  41  51 S8        30.23F
ROCK SPRINGS,  CLOUDY    65  36  34 SW10      30.18
KEMMERER, WY     N/A     59  34  38 NW12      30.24S

$$




USA.gov is the U.S. government's official web portal to all federal, state and local government web resources and services.